Weather History for KMWO - September, 2013

Change the Weather History Date:

Monday, September 23, 2013

  Actual Average (KDAY) Record (KDAY)
Temperature  
Mean Temperature 56 °F 62 °F  
Max Temperature 67 °F 73 °F 93 °F (1908)
Min Temperature 44 °F 52 °F 32 °F (1974)
Degree Days  
Heating Degree Days 10 4  
Month to date heating degree days 48  
Since 1 July heating degree days 50  
Cooling Degree Days 0 2  
Month to date cooling degree days 88  
Year to date cooling degree days 870  
Growing Degree Days 6 (Base 50)    
Moisture  
Dew Point 43 °F    
Average Humidity 65    
Maximum Humidity 87    
Minimum Humidity 36    
Precipitation  
Precipitation 0.00 in 0.11 in 2.31 in (1955)
Month to date precipitation 2.56  
Year to date precipitation 30.87  
Snow  
Snow 0.00 in 0.00 in - ()
Month to date snowfall 0.0  
Since 1 July snowfall 0.0  
Since 1 September snowfall 0.0  
Snow Depth -    
Sea Level Pressure  
Sea Level Pressure 30.10 in    
Wind  
Wind Speed 3 mph (ENE)    
Max Wind Speed 10 mph    
Max Gust Speed 17 mph    
Visibility 10 miles    
Events      
T = Trace of Precipitation, MM = Missing Value Source: NWS Daily Summary

Daily Weather History Graph

Daily Weather History Graph

Search for Another Location

Airport or City:

Trip Planner

Search our weather history database for the weather conditions in past years. The results will help you decide how hot, cold, wet, or windy it might be!

Date:

Astronomy

Sep. 23, 2013 Rise Set
Actual Time 7:26 AM EDT 7:32 PM EDT
Civil Twilight 6:59 AM EDT 7:59 PM EDT
Nautical Twilight 6:28 AM EDT 8:30 PM EDT
Astronomical Twilight 5:56 AM EDT 9:02 PM EDT
Moon 10:05 PM EDT (9/23) 11:43 AM EDT (9/23)
Length of Visible Light 12h 59m
Length of Day
12h 06m
Waning Gibbous, 81% of the Moon is Illuminated
Sep 23
Waning Gibbous
Sep 26
Last Quarter
Oct 4
New
Oct 11
First Quarter
Oct 18
Full

Hourly Weather History & Observations

Time (EDT) Temp. Windchill Dew Point Humidity Pressure Visibility Wind Dir Wind Speed Gust Speed Precip Events Conditions
12:15 AM 47.7 °F - 43.7 °F 86% 30.05 in 10.0 mi North 3.5 mph - N/A   Clear
12:35 AM 47.7 °F - 43.2 °F 84% 30.05 in 10.0 mi North 3.5 mph - N/A   Clear
12:55 AM 47.7 °F - 43.3 °F 85% 30.05 in 10.0 mi Calm Calm - N/A   Clear
1:15 AM 47.7 °F - 43.7 °F 86% 30.05 in 10.0 mi Calm Calm - N/A   Clear
1:35 AM 47.7 °F - 43.7 °F 86% 30.05 in 10.0 mi Calm Calm - N/A   Clear
1:55 AM 47.7 °F - 43.7 °F 86% 30.06 in 10.0 mi Calm Calm - N/A   Clear
2:15 AM 47.7 °F - 43.0 °F 84% 30.06 in 10.0 mi North 3.5 mph - N/A   Clear
2:35 AM 47.7 °F - 42.8 °F 83% 30.07 in 10.0 mi Calm Calm - N/A   Clear
2:55 AM 47.7 °F - 43.3 °F 85% 30.07 in 10.0 mi Calm Calm - N/A   Clear
3:15 AM 47.7 °F - 43.3 °F 85% 30.07 in 10.0 mi Calm Calm - N/A   Clear
3:35 AM 47.7 °F - 43.3 °F 85% 30.07 in 10.0 mi Calm Calm - N/A   Clear
3:55 AM 47.7 °F - 43.2 °F 84% 30.07 in 10.0 mi North 4.6 mph - N/A   Clear
4:15 AM 47.7 °F - 43.3 °F 85% 30.07 in 10.0 mi North 3.5 mph - N/A   Clear
4:35 AM 47.7 °F - 43.3 °F 85% 30.07 in 10.0 mi North 3.5 mph - N/A   Clear
4:55 AM 47.7 °F - 43.3 °F 85% 30.07 in 10.0 mi North 4.6 mph - N/A   Clear
5:15 AM 47.7 °F - 43.2 °F 84% 30.08 in 10.0 mi North 3.5 mph - N/A   Clear
5:35 AM 47.7 °F - 43.2 °F 84% 30.08 in 10.0 mi North 3.5 mph - N/A   Clear
5:55 AM 47.7 °F - 43.5 °F 86% 30.08 in 10.0 mi Calm Calm - N/A   Clear
6:15 AM 45.1 °F - 41.2 °F 86% 30.09 in 10.0 mi Calm Calm - N/A   Clear
6:35 AM 45.1 °F - 41.2 °F 86% 30.10 in 10.0 mi Calm Calm - N/A   Clear
6:55 AM 45.1 °F - 41.2 °F 86% 30.10 in 10.0 mi Calm Calm - N/A   Clear
7:15 AM 45.1 °F - 41.4 °F 87% 30.11 in 10.0 mi Calm Calm - N/A   Clear
7:35 AM 44.2 °F 42.7 °F 40.5 °F 87% 30.12 in 10.0 mi North 3.5 mph - N/A   Clear
7:55 AM 45.1 °F - 41.4 °F 87% 30.13 in 10.0 mi Calm Calm - N/A   Clear
8:15 AM 47.7 °F - 43.9 °F 87% 30.13 in 10.0 mi Calm Calm - N/A   Clear
8:35 AM 47.7 °F - 43.7 °F 86% 30.13 in 10.0 mi Calm Calm - N/A   Clear
8:55 AM 50.5 °F - 45.1 °F 82% 30.14 in 10.0 mi ENE 4.6 mph - N/A   Clear
9:15 AM 52.7 °F - 46.4 °F 79% 30.14 in 10.0 mi NNE 3.5 mph - N/A   Clear
9:35 AM 52.7 °F - 45.0 °F 75% 30.14 in 10.0 mi NE 4.6 mph - N/A   Clear
9:55 AM 55.4 °F - 46.2 °F 71% 30.15 in 10.0 mi ENE 4.6 mph - N/A   Clear
10:15 AM 57.7 °F - 45.5 °F 64% 30.15 in 10.0 mi East 5.8 mph - N/A   Clear
10:35 AM 57.9 °F - 43.2 °F 58% 30.15 in 10.0 mi ESE 6.9 mph - N/A   Clear
10:55 AM 59.0 °F - 43.0 °F 55% 30.15 in 10.0 mi East 6.9 mph - N/A   Clear
11:15 AM 59.7 °F - 42.3 °F 52% 30.15 in 10.0 mi East 8.1 mph - N/A   Clear
11:35 AM 60.1 °F - 41.2 °F 50% 30.15 in 10.0 mi East 6.9 mph - N/A   Clear
11:55 AM 62.1 °F - 42.1 °F 48% 30.14 in 10.0 mi East 6.9 mph - N/A   Clear
12:15 PM 62.6 °F - 41.7 °F 46% 30.14 in 10.0 mi ESE 5.8 mph - N/A   Clear
12:35 PM 62.6 °F - 41.4 °F 46% 30.15 in 10.0 mi ENE 8.1 mph - N/A   Clear
12:55 PM 65.3 °F - 43.2 °F 45% 30.14 in 10.0 mi East 10.4 mph - N/A   Clear
1:15 PM 65.3 °F - 42.4 °F 43% 30.13 in 10.0 mi ESE 10.4 mph 17.3 mph N/A   Clear
1:35 PM 65.8 °F - 42.8 °F 43% 30.13 in 10.0 mi NE 5.8 mph - N/A   Clear
1:55 PM 67.6 °F - 43.7 °F 42% 30.12 in 10.0 mi ENE 5.8 mph 9.2 mph N/A   Clear
2:15 PM 67.6 °F - 43.2 °F 41% 30.12 in 10.0 mi East 8.1 mph - N/A   Clear
2:35 PM 67.6 °F - 42.8 °F 41% 30.11 in 10.0 mi ENE 10.4 mph - N/A   Clear
2:55 PM 67.6 °F - 41.4 °F 38% 30.11 in 10.0 mi ESE 3.5 mph - N/A   Clear
3:15 PM 67.6 °F - 40.8 °F 38% 30.10 in 10.0 mi ENE 8.1 mph - N/A   Clear
3:35 PM 67.6 °F - 41.5 °F 39% 30.10 in 10.0 mi NE 9.2 mph - N/A   Clear
3:55 PM 67.6 °F - 40.6 °F 37% 30.09 in 10.0 mi ENE 6.9 mph - N/A   Clear
4:15 PM 67.6 °F - 40.6 °F 37% 30.09 in 10.0 mi ENE 5.8 mph - N/A   Clear
4:35 PM 67.6 °F - 40.6 °F 37% 30.08 in 10.0 mi NE 6.9 mph - N/A   Clear
4:55 PM 67.6 °F - 40.3 °F 37% 30.08 in 10.0 mi ESE 5.8 mph - N/A   Clear
5:15 PM 67.6 °F - 40.1 °F 37% 30.08 in 10.0 mi ESE 6.9 mph - N/A   Clear
5:35 PM 67.6 °F - 39.6 °F 36% 30.08 in 10.0 mi East 6.9 mph - N/A   Clear
5:55 PM 67.6 °F - 41.2 °F 38% 30.07 in 10.0 mi East 10.4 mph - N/A   Clear
6:15 PM 67.6 °F - 39.9 °F 36% 30.07 in 10.0 mi ENE 6.9 mph - N/A   Clear
6:35 PM 67.6 °F - 40.8 °F 38% 30.07 in 10.0 mi East 6.9 mph - N/A   Clear
6:55 PM 67.6 °F - 43.3 °F 41% 30.08 in 10.0 mi East 4.6 mph - N/A   Clear
7:15 PM 63.9 °F - 41.7 °F 44% 30.07 in 10.0 mi East 6.9 mph - N/A   Clear
7:35 PM 60.1 °F - 42.1 °F 51% 30.07 in 10.0 mi ENE 4.6 mph - N/A   Clear
7:55 PM 57.9 °F - 46.6 °F 66% 30.08 in 10.0 mi Calm Calm - N/A   Clear
8:15 PM 55.4 °F - 46.4 °F 72% 30.08 in 10.0 mi Calm Calm - N/A   Clear
8:35 PM 55.4 °F - 47.5 °F 75% 30.08 in 10.0 mi Calm Calm - N/A   Clear
8:55 PM 52.7 °F - 46.2 °F 79% 30.09 in 10.0 mi NNE 3.5 mph - N/A   Clear
9:15 PM 55.4 °F - 45.7 °F 70% 30.09 in 10.0 mi NE 4.6 mph - N/A   Clear
9:35 PM 55.4 °F - 43.9 °F 65% 30.10 in 10.0 mi ENE 5.8 mph - N/A   Clear
9:55 PM 55.4 °F - 43.3 °F 64% 30.10 in 10.0 mi ENE 5.8 mph - N/A   Clear
10:15 PM 55.4 °F - 43.7 °F 65% 30.11 in 10.0 mi ENE 4.6 mph - N/A   Clear
10:35 PM 55.4 °F - 44.6 °F 67% 30.11 in 10.0 mi NE 4.6 mph - N/A   Clear
10:55 PM 54.3 °F - 43.9 °F 68% 30.11 in 10.0 mi NE 3.5 mph - N/A   Clear
11:15 PM 53.4 °F - 43.2 °F 68% 30.11 in 10.0 mi Calm Calm - N/A   Clear
11:35 PM 52.7 °F - 45.1 °F 75% 30.11 in 10.0 mi Calm Calm - N/A   Clear
11:55 PM 52.7 °F - 44.1 °F 72% 30.11 in 10.0 mi NE 3.5 mph - N/A   Clear